Precipitable_Water
0.63 0.63 0.63 0.62 0.61 0.61 0.61 0.61 0.59 0.58 0.57 0.57 0.56 0.54 0.54 0.54 0.53 0.52 0.52 0.51 0.51 0.50 0.49 0.49 0.49 0.47 0.45 0.46 0.47 0.45 0.46 0.36 0.29 0.24 0.22 0.21 0.23 0.22 0.24 0.25 0.27 0.29 0.34 0.34 0.34 0.30 0.25 0.26 0.24 0.29 0.22 0.24 0.23 0.19 0.28 0.30 0.33 0.28 0.20 0.17 0.13 0.13 0.15 0.21 0.19 0.19 0.20 0.19 0.20 0.20 0.21 0.20 0.30 0.44 0.52 0.66 0.56 0.53 0.59 0.66 0.73 0.84 0.84 0.94 1.00 1.07 1.16 1.21
0.64 0.63 0.63 0.63 0.63 0.62 0.61 0.60 0.60 0.60 0.59 0.57 0.57 0.55 0.54 0.53 0.53 0.52 0.52 0.51 0.50 0.49 0.48 0.48 0.48 0.46 0.46 0.45 0.44 0.45 0.40 0.32 0.23 0.22 0.20 0.24 0.23 0.23 0.23 0.23 0.26 0.31 0.36 0.29 0.28 0.26 0.23 0.22 0.23 0.25 0.20 0.18 0.31 0.20 0.29 0.26 0.34 0.22 0.18 0.17 0.12 0.14 0.20 0.25 0.23 0.22 0.21 0.20 0.21 0.21 0.21 0.19 0.29 0.44 0.47 0.42 0.43 0.47 0.47 0.59 0.67 0.62 0.78 0.92 0.99 1.05 1.07 1.10
0.65 0.63 0.63 0.63 0.62 0.62 0.61 0.61 0.60 0.60 0.60 0.59 0.57 0.56 0.54 0.53 0.52 0.52 0.52 0.52 0.51 0.49 0.48 0.47 0.46 0.45 0.44 0.45 0.44 0.43 0.36 0.22 0.22 0.16 0.17 0.21 0.21 0.21 0.22 0.23 0.26 0.33 0.31 0.26 0.29 0.28 0.22 0.20 0.22 0.22 0.19 0.17 0.26 0.22 0.25 0.27 0.29 0.26 0.19 0.14 0.13 0.19 0.25 0.26 0.25 0.23 0.23 0.23 0.21 0.21 0.21 0.20 0.21 0.29 0.44 0.34 0.41 0.47 0.38 0.41 0.49 0.54 0.61 0.76 0.87 0.97 1.01 1.03
0.66 0.65 0.63 0.62 0.63 0.63 0.63 0.62 0.61 0.60 0.59 0.59 0.58 0.58 0.56 0.55 0.53 0.53 0.52 0.52 0.51 0.50 0.49 0.47 0.45 0.45 0.44 0.43 0.43 0.41 0.28 0.20 0.13 0.14 0.16 0.21 0.22 0.23 0.25 0.25 0.27 0.31 0.30 0.28 0.29 0.29 0.28 0.23 0.22 0.21 0.18 0.17 0.24 0.28 0.22 0.27 0.23 0.25 0.21 0.16 0.16 0.24 0.24 0.25 0.26 0.25 0.25 0.24 0.22 0.22 0.22 0.20 0.20 0.28 0.38 0.34 0.34 0.36 0.41 0.51 0.47 0.48 0.61 0.71 0.83 0.90 0.96 0.95
0.60 0.61 0.62 0.61 0.62 0.62 0.62 0.63 0.63 0.62 0.60 0.59 0.59 0.58 0.58 0.56 0.55 0.53 0.53 0.52 0.51 0.49 0.49 0.48 0.45 0.45 0.44 0.43 0.42 0.37 0.23 0.11 0.11 0.15 0.34 0.39 0.36 0.34 0.31 0.27 0.29 0.29 0.30 0.31 0.32 0.29 0.26 0.22 0.21 0.20 0.17 0.14 0.23 0.26 0.25 0.27 0.27 0.22 0.19 0.21 0.22 0.24 0.23 0.26 0.25 0.26 0.24 0.24 0.23 0.22 0.21 0.20 0.24 0.33 0.33 0.31 0.21 0.23 0.32 0.37 0.52 0.58 0.66 0.70 0.76 0.86 0.92 0.88
0.59 0.58 0.59 0.60 0.60 0.61 0.60 0.61 0.61 0.62 0.61 0.60 0.60 0.59 0.58 0.57 0.55 0.54 0.53 0.53 0.51 0.50 0.48 0.48 0.46 0.44 0.44 0.43 0.37 0.31 0.15 0.07 0.26 0.30 0.48 0.45 0.38 0.38 0.39 0.32 0.31 0.29 0.34 0.32 0.26 0.25 0.22 0.20 0.19 0.17 0.16 0.15 0.18 0.19 0.23 0.27 0.28 0.17 0.20 0.19 0.22 0.26 0.24 0.26 0.26 0.25 0.24 0.23 0.22 0.21 0.22 0.22 0.22 0.23 0.34 0.30 0.21 0.24 0.38 0.50 0.59 0.68 0.77 0.82 0.84 0.81 0.78 0.79
0.57 0.56 0.56 0.58 0.59 0.60 0.60 0.59 0.59 0.60 0.61 0.60 0.60 0.60 0.58 0.56 0.56 0.54 0.54 0.53 0.52 0.50 0.49 0.48 0.46 0.45 0.43 0.41 0.36 0.23 0.13 0.10 0.20 0.38 0.53 0.45 0.38 0.39 0.45 0.39 0.33 0.30 0.31 0.26 0.26 0.21 0.20 0.18 0.17 0.16 0.16 0.16 0.19 0.20 0.24 0.25 0.27 0.22 0.18 0.20 0.21 0.23 0.24 0.27 0.25 0.24 0.23 0.23 0.21 0.23 0.24 0.21 0.21 0.19 0.30 0.26 0.24 0.28 0.41 0.54 0.63 0.71 0.79 0.83 0.75 0.77 0.72 0.72
0.58 0.56 0.55 0.56 0.57 0.57 0.57 0.57 0.58 0.58 0.59 0.58 0.58 0.59 0.59 0.57 0.56 0.55 0.55 0.53 0.52 0.50 0.50 0.48 0.47 0.45 0.44 0.33 0.24 0.15 0.16 0.11 0.13 0.17 0.27 0.43 0.42 0.41 0.47 0.39 0.30 0.29 0.25 0.24 0.23 0.20 0.19 0.16 0.14 0.19 0.17 0.14 0.18 0.17 0.22 0.24 0.25 0.21 0.19 0.20 0.22 0.25 0.27 0.27 0.26 0.24 0.23 0.22 0.23 0.23 0.21 0.21 0.21 0.20 0.22 0.21 0.28 0.44 0.51 0.58 0.65 0.71 0.75 0.77 0.75 0.71 0.74 0.77
0.59 0.57 0.56 0.56 0.57 0.59 0.58 0.56 0.56 0.56 0.56 0.57 0.55 0.55 0.56 0.56 0.55 0.55 0.53 0.54 0.52 0.50 0.49 0.49 0.46 0.47 0.47 0.34 0.18 0.13 0.10 0.14 0.16 0.17 0.29 0.37 0.41 0.46 0.40 0.29 0.33 0.25 0.24 0.26 0.27 0.23 0.18 0.16 0.17 0.19 0.15 0.16 0.22 0.19 0.21 0.20 0.18 0.22 0.21 0.22 0.24 0.26 0.27 0.26 0.24 0.22 0.22 0.22 0.22 0.21 0.20 0.21 0.21 0.22 0.19 0.21 0.39 0.53 0.61 0.61 0.68 0.73 0.73 0.73 0.74 0.74 0.74 0.77
0.60 0.57 0.56 0.56 0.54 0.54 0.56 0.57 0.56 0.55 0.55 0.54 0.55 0.53 0.54 0.54 0.54 0.54 0.52 0.52 0.52 0.50 0.50 0.49 0.48 0.45 0.39 0.27 0.23 0.11 0.12 0.20 0.32 0.37 0.36 0.42 0.42 0.42 0.37 0.31 0.29 0.27 0.24 0.26 0.27 0.25 0.17 0.16 0.16 0.22 0.26 0.22 0.25 0.21 0.23 0.21 0.19 0.22 0.22 0.24 0.24 0.26 0.25 0.25 0.22 0.21 0.21 0.21 0.21 0.19 0.18 0.19 0.21 0.20 0.17 0.37 0.50 0.59 0.56 0.57 0.72 0.73 0.71 0.73 0.75 0.76 0.78 0.78
0.58 0.56 0.55 0.55 0.56 0.56 0.55 0.55 0.55 0.55 0.55 0.55 0.54 0.53 0.52 0.51 0.52 0.52 0.51 0.51 0.51 0.50 0.49 0.48 0.50 0.43 0.30 0.31 0.14 0.10 0.14 0.23 0.37 0.43 0.44 0.45 0.43 0.39 0.36 0.32 0.29 0.24 0.24 0.25 0.24 0.24 0.21 0.21 0.24 0.26 0.27 0.26 0.25 0.24 0.25 0.23 0.25 0.25 0.25 0.25 0.24 0.25 0.25 0.24 0.22 0.21 0.21 0.19 0.20 0.20 0.18 0.19 0.20 0.19 0.16 0.26 0.49 0.50 0.41 0.53 0.66 0.71 0.75 0.74 0.75 0.74 0.76 0.77
0.57 0.55 0.55 0.54 0.56 0.57 0.56 0.56 0.55 0.54 0.53 0.53 0.52 0.51 0.50 0.50 0.51 0.50 0.50 0.51 0.50 0.50 0.48 0.49 0.48 0.47 0.39 0.27 0.18 0.13 0.31 0.33 0.37 0.44 0.44 0.46 0.45 0.41 0.42 0.38 0.33 0.29 0.27 0.23 0.23 0.25 0.25 0.23 0.29 0.24 0.20 0.31 0.23 0.25 0.23 0.28 0.26 0.25 0.25 0.21 0.23 0.24 0.22 0.22 0.20 0.20 0.20 0.19 0.20 0.20 0.18 0.16 0.17 0.15 0.18 0.29 0.45 0.48 0.45 0.50 0.61 0.70 0.74 0.73 0.72 0.72 0.73 0.74
0.58 0.56 0.53 0.57 0.58 0.58 0.56 0.54 0.54 0.54 0.53 0.52 0.52 0.50 0.49 0.48 0.49 0.49 0.48 0.48 0.49 0.48 0.48 0.48 0.46 0.40 0.33 0.16 0.15 0.18 0.22 0.32 0.34 0.37 0.38 0.44 0.51 0.48 0.45 0.44 0.38 0.36 0.33 0.28 0.25 0.27 0.26 0.30 0.32 0.26 0.34 0.30 0.26 0.21 0.24 0.26 0.24 0.23 0.24 0.22 0.21 0.21 0.19 0.21 0.20 0.20 0.19 0.19 0.21 0.20 0.13 0.14 0.15 0.16 0.19 0.37 0.43 0.46 0.52 0.46 0.55 0.66 0.67 0.65 0.67 0.67 0.72 0.78
0.57 0.55 0.56 0.59 0.58 0.57 0.55 0.54 0.55 0.54 0.52 0.51 0.51 0.50 0.48 0.47 0.47 0.47 0.47 0.45 0.47 0.47 0.47 0.47 0.47 0.45 0.30 0.14 0.16 0.20 0.21 0.22 0.20 0.27 0.31 0.32 0.37 0.43 0.48 0.48 0.44 0.38 0.34 0.28 0.29 0.29 0.27 0.32 0.38 0.40 0.43 0.34 0.26 0.30 0.25 0.23 0.24 0.20 0.21 0.22 0.19 0.17 0.17 0.20 0.19 0.20 0.18 0.20 0.20 0.19 0.13 0.13 0.15 0.17 0.20 0.36 0.44 0.39 0.38 0.43 0.49 0.55 0.57 0.59 0.62 0.63 0.70 0.77
0.56 0.56 0.56 0.57 0.56 0.56 0.55 0.55 0.54 0.54 0.52 0.51 0.50 0.50 0.48 0.45 0.45 0.45 0.45 0.44 0.43 0.44 0.49 0.54 0.48 0.35 0.21 0.16 0.24 0.22 0.26 0.28 0.18 0.23 0.32 0.30 0.33 0.38 0.41 0.47 0.45 0.39 0.34 0.30 0.29 0.31 0.28 0.30 0.38 0.37 0.35 0.38 0.36 0.28 0.23 0.21 0.21 0.21 0.18 0.16 0.19 0.17 0.17 0.18 0.20 0.19 0.17 0.19 0.20 0.18 0.13 0.13 0.15 0.17 0.18 0.33 0.38 0.38 0.33 0.39 0.45 0.48 0.51 0.54 0.59 0.61 0.69 0.74
0.54 0.57 0.57 0.56 0.56 0.55 0.53 0.53 0.54 0.53 0.52 0.51 0.49 0.48 0.47 0.44 0.43 0.42 0.42 0.41 0.42 0.45 0.48 0.37 0.35 0.33 0.21 0.13 0.14 0.27 0.26 0.18 0.15 0.24 0.35 0.35 0.33 0.33 0.41 0.44 0.48 0.45 0.36 0.31 0.34 0.33 0.28 0.29 0.31 0.37 0.37 0.32 0.29 0.25 0.22 0.20 0.19 0.21 0.18 0.16 0.16 0.17 0.17 0.16 0.18 0.19 0.19 0.18 0.19 0.17 0.13 0.14 0.15 0.17 0.17 0.37 0.43 0.37 0.31 0.35 0.39 0.45 0.48 0.52 0.58 0.60 0.68 0.74
0.54 0.56 0.57 0.57 0.56 0.54 0.54 0.52 0.52 0.53 0.52 0.50 0.48 0.46 0.44 0.42 0.41 0.41 0.41 0.41 0.41 0.45 0.45 0.27 0.41 0.42 0.13 0.18 0.30 0.16 0.15 0.19 0.24 0.26 0.36 0.38 0.38 0.40 0.45 0.44 0.39 0.37 0.36 0.34 0.34 0.32 0.30 0.30 0.36 0.37 0.36 0.29 0.27 0.26 0.20 0.18 0.17 0.18 0.19 0.17 0.18 0.15 0.15 0.14 0.18 0.19 0.20 0.18 0.16 0.17 0.14 0.15 0.16 0.18 0.21 0.34 0.41 0.39 0.34 0.35 0.42 0.47 0.51 0.54 0.59 0.61 0.66 0.71
0.59 0.57 0.54 0.55 0.55 0.54 0.53 0.52 0.52 0.51 0.51 0.50 0.47 0.42 0.38 0.43 0.43 0.41 0.37 0.43 0.48 0.45 0.46 0.52 0.46 0.33 0.17 0.20 0.15 0.17 0.27 0.25 0.23 0.23 0.34 0.40 0.44 0.45 0.43 0.35 0.36 0.36 0.34 0.31 0.32 0.25 0.30 0.31 0.36 0.29 0.28 0.27 0.25 0.24 0.19 0.15 0.17 0.16 0.17 0.16 0.16 0.17 0.16 0.14 0.14 0.18 0.19 0.20 0.17 0.17 0.15 0.15 0.17 0.18 0.22 0.31 0.40 0.37 0.32 0.34 0.40 0.46 0.53 0.58 0.60 0.63 0.66 0.72
0.58 0.57 0.55 0.53 0.51 0.51 0.52 0.52 0.51 0.51 0.50 0.50 0.46 0.43 0.46 0.51 0.46 0.43 0.32 0.37 0.29 0.22 0.15 0.20 0.24 0.11 0.09 0.19 0.20 0.21 0.25 0.30 0.29 0.26 0.28 0.36 0.43 0.47 0.45 0.40 0.36 0.32 0.26 0.24 0.24 0.24 0.32 0.33 0.33 0.27 0.22 0.23 0.23 0.23 0.21 0.20 0.19 0.18 0.17 0.16 0.16 0.15 0.14 0.14 0.16 0.19 0.18 0.18 0.16 0.16 0.15 0.15 0.17 0.18 0.20 0.27 0.39 0.39 0.40 0.47 0.50 0.54 0.58 0.60 0.60 0.62 0.65 0.72
0.59 0.57 0.55 0.54 0.53 0.53 0.51 0.51 0.51 0.50 0.50 0.45 0.40 0.34 0.34 0.30 0.34 0.27 0.35 0.33 0.21 0.15 0.14 0.19 0.23 0.18 0.19 0.25 0.24 0.29 0.31 0.35 0.25 0.23 0.29 0.36 0.38 0.41 0.39 0.36 0.33 0.32 0.25 0.20 0.23 0.26 0.34 0.26 0.24 0.22 0.23 0.23 0.24 0.23 0.22 0.21 0.21 0.19 0.18 0.17 0.15 0.15 0.15 0.16 0.17 0.19 0.20 0.18 0.16 0.16 0.16 0.16 0.18 0.19 0.19 0.21 0.27 0.34 0.44 0.45 0.47 0.53 0.57 0.59 0.61 0.62 0.67 0.74
0.59 0.58 0.55 0.51 0.49 0.50 0.50 0.51 0.51 0.50 0.50 0.46 0.39 0.27 0.14 0.29 0.22 0.22 0.33 0.33 0.30 0.24 0.17 0.17 0.22 0.22 0.16 0.22 0.27 0.26 0.25 0.27 0.30 0.25 0.27 0.37 0.35 0.34 0.33 0.33 0.28 0.23 0.25 0.24 0.22 0.34 0.34 0.25 0.24 0.24 0.24 0.23 0.23 0.23 0.23 0.21 0.21 0.19 0.17 0.16 0.15 0.15 0.14 0.16 0.17 0.20 0.23 0.18 0.17 0.17 0.17 0.17 0.19 0.21 0.26 0.28 0.29 0.28 0.35 0.46 0.51 0.53 0.57 0.63 0.67 0.71 0.77 0.86
0.60 0.58 0.55 0.53 0.51 0.51 0.50 0.51 0.51 0.50 0.50 0.45 0.36 0.24 0.24 0.32 0.42 0.42 0.35 0.20 0.27 0.30 0.30 0.25 0.25 0.21 0.23 0.24 0.28 0.30 0.30 0.25 0.24 0.27 0.30 0.34 0.31 0.27 0.31 0.29 0.24 0.21 0.26 0.27 0.27 0.28 0.25 0.22 0.24 0.26 0.26 0.25 0.24 0.23 0.23 0.21 0.20 0.20 0.18 0.16 0.15 0.15 0.17 0.18 0.18 0.22 0.22 0.20 0.18 0.19 0.17 0.18 0.21 0.26 0.30 0.29 0.29 0.32 0.39 0.44 0.55 0.58 0.63 0.66 0.68 0.73 0.76 0.78
0.62 0.59 0.56 0.54 0.52 0.51 0.51 0.53 0.53 0.51 0.42 0.33 0.26 0.26 0.30 0.44 0.51 0.56 0.48 0.34 0.25 0.28 0.26 0.25 0.23 0.22 0.20 0.26 0.29 0.33 0.25 0.22 0.21 0.26 0.28 0.32 0.31 0.29 0.29 0.26 0.24 0.25 0.27 0.27 0.22 0.24 0.22 0.24 0.27 0.28 0.25 0.23 0.22 0.21 0.21 0.20 0.20 0.19 0.18 0.15 0.13 0.16 0.15 0.13 0.18 0.21 0.22 0.21 0.19 0.19 0.17 0.19 0.25 0.28 0.30 0.35 0.36 0.39 0.45 0.48 0.54 0.59 0.59 0.62 0.66 0.71 0.73 0.75
0.60 0.58 0.56 0.55 0.53 0.52 0.52 0.52 0.52 0.45 0.40 0.34 0.29 0.34 0.48 0.54 0.57 0.56 0.39 0.24 0.21 0.25 0.27 0.26 0.25 0.24 0.21 0.21 0.28 0.28 0.24 0.26 0.27 0.25 0.33 0.30 0.28 0.31 0.28 0.27 0.24 0.25 0.25 0.27 0.25 0.23 0.22 0.26 0.29 0.26 0.24 0.21 0.19 0.20 0.20 0.19 0.17 0.19 0.18 0.16 0.15 0.15 0.16 0.17 0.18 0.21 0.23 0.25 0.23 0.19 0.17 0.18 0.26 0.23 0.24 0.34 0.44 0.42 0.46 0.50 0.54 0.58 0.61 0.66 0.70 0.72 0.75 0.75
0.59 0.58 0.55 0.55 0.54 0.54 0.50 0.49 0.42 0.42 0.43 0.37 0.42 0.50 0.55 0.57 0.59 0.59 0.40 0.28 0.25 0.22 0.34 0.30 0.32 0.27 0.24 0.35 0.36 0.28 0.30 0.31 0.31 0.32 0.31 0.31 0.31 0.29 0.28 0.32 0.26 0.22 0.26 0.28 0.27 0.25 0.25 0.26 0.26 0.23 0.23 0.22 0.20 0.18 0.19 0.19 0.17 0.17 0.19 0.18 0.16 0.17 0.17 0.18 0.20 0.20 0.19 0.19 0.21 0.17 0.13 0.16 0.27 0.28 0.27 0.33 0.37 0.38 0.48 0.45 0.50 0.55 0.58 0.61 0.61 0.66 0.73 0.77
0.59 0.59 0.55 0.53 0.53 0.53 0.52 0.35 0.40 0.47 0.36 0.34 0.48 0.54 0.56 0.58 0.63 0.60 0.38 0.23 0.15 0.20 0.27 0.18 0.32 0.20 0.32 0.25 0.31 0.29 0.38 0.27 0.31 0.34 0.32 0.33 0.37 0.29 0.30 0.27 0.27 0.21 0.26 0.27 0.27 0.27 0.25 0.26 0.24 0.21 0.21 0.20 0.19 0.17 0.20 0.20 0.17 0.16 0.17 0.20 0.18 0.18 0.18 0.18 0.21 0.20 0.16 0.15 0.19 0.21 0.13 0.14 0.28 0.26 0.31 0.35 0.38 0.39 0.44 0.44 0.50 0.55 0.58 0.60 0.60 0.63 0.67 0.72
0.61 0.59 0.57 0.55 0.52 0.53 0.37 0.27 0.45 0.45 0.29 0.39 0.57 0.59 0.57 0.58 0.67 0.57 0.28 0.19 0.14 0.19 0.17 0.25 0.26 0.26 0.26 0.26 0.29 0.35 0.21 0.22 0.33 0.36 0.31 0.34 0.33 0.37 0.26 0.26 0.27 0.29 0.29 0.30 0.25 0.21 0.25 0.25 0.23 0.23 0.21 0.18 0.17 0.15 0.18 0.19 0.17 0.15 0.20 0.19 0.19 0.19 0.18 0.18 0.20 0.21 0.19 0.22 0.23 0.21 0.18 0.15 0.18 0.30 0.40 0.43 0.39 0.37 0.39 0.43 0.47 0.52 0.56 0.58 0.61 0.65 0.66 0.71
0.63 0.60 0.55 0.53 0.53 0.52 0.44 0.42 0.36 0.31 0.35 0.49 0.62 0.60 0.60 0.60 0.66 0.57 0.27 0.13 0.10 0.26 0.18 0.24 0.25 0.40 0.26 0.30 0.33 0.27 0.28 0.34 0.25 0.30 0.32 0.32 0.33 0.31 0.30 0.26 0.23 0.24 0.27 0.25 0.16 0.21 0.21 0.20 0.21 0.20 0.20 0.18 0.15 0.16 0.18 0.18 0.15 0.16 0.19 0.20 0.18 0.19 0.17 0.19 0.22 0.22 0.22 0.19 0.17 0.18 0.21 0.15 0.20 0.34 0.46 0.45 0.34 0.36 0.38 0.43 0.46 0.51 0.55 0.58 0.61 0.65 0.69 0.73
0.63 0.61 0.57 0.54 0.52 0.54 0.52 0.42 0.36 0.32 0.48 0.59 0.61 0.61 0.58 0.62 0.55 0.34 0.25 0.13 0.26 0.27 0.35 0.23 0.35 0.32 0.28 0.31 0.29 0.28 0.29 0.34 0.24 0.30 0.35 0.34 0.32 0.31 0.25 0.30 0.28 0.25 0.27 0.23 0.15 0.19 0.21 0.20 0.19 0.20 0.19 0.16 0.19 0.19 0.20 0.18 0.14 0.17 0.20 0.21 0.21 0.21 0.21 0.24 0.24 0.23 0.22 0.19 0.16 0.18 0.20 0.15 0.20 0.35 0.37 0.45 0.37 0.35 0.41 0.48 0.51 0.53 0.55 0.58 0.60 0.66 0.71 0.76
0.61 0.60 0.55 0.54 0.52 0.49 0.46 0.44 0.35 0.43 0.54 0.59 0.61 0.59 0.59 0.54 0.41 0.21 0.20 0.12 0.31 0.23 0.26 0.29 0.24 0.22 0.29 0.23 0.24 0.26 0.26 0.31 0.32 0.34 0.34 0.29 0.28 0.32 0.30 0.34 0.30 0.27 0.26 0.26 0.21 0.22 0.24 0.24 0.28 0.24 0.21 0.21 0.21 0.21 0.21 0.19 0.17 0.18 0.19 0.18 0.19 0.21 0.24 0.26 0.25 0.23 0.21 0.17 0.17 0.20 0.21 0.17 0.15 0.29 0.35 0.33 0.34 0.44 0.48 0.51 0.56 0.58 0.58 0.61 0.65 0.68 0.72 0.75
0.60 0.58 0.56 0.54 0.43 0.44 0.41 0.30 0.35 0.48 0.58 0.64 0.60 0.55 0.52 0.42 0.25 0.18 0.14 0.17 0.33 0.31 0.30 0.27 0.23 0.27 0.24 0.21 0.19 0.24 0.27 0.29 0.29 0.33 0.29 0.29 0.26 0.28 0.28 0.27 0.33 0.28 0.26 0.24 0.21 0.24 0.25 0.25 0.24 0.26 0.28 0.27 0.27 0.24 0.26 0.24 0.22 0.18 0.16 0.16 0.20 0.21 0.24 0.23 0.22 0.23 0.17 0.15 0.19 0.21 0.20 0.20 0.14 0.26 0.38 0.47 0.56 0.55 0.52 0.48 0.53 0.56 0.58 0.61 0.66 0.71 0.76 0.80
0.59 0.58 0.57 0.52 0.48 0.48 0.34 0.34 0.42 0.55 0.60 0.61 0.56 0.48 0.37 0.22 0.25 0.17 0.16 0.40 0.24 0.30 0.28 0.24 0.26 0.25 0.23 0.23 0.21 0.21 0.25 0.27 0.30 0.30 0.28 0.25 0.23 0.22 0.23 0.20 0.23 0.21 0.20 0.19 0.18 0.23 0.21 0.21 0.25 0.25 0.29 0.25 0.23 0.22 0.21 0.23 0.24 0.20 0.18 0.19 0.17 0.17 0.18 0.16 0.18 0.16 0.15 0.15 0.19 0.24 0.22 0.19 0.20 0.33 0.44 0.50 0.54 0.56 0.58 0.57 0.58 0.61 0.64 0.67 0.70 0.73 0.78 0.81
0.59 0.57 0.54 0.49 0.47 0.40 0.39 0.48 0.48 0.54 0.58 0.57 0.52 0.45 0.28 0.21 0.14 0.19 0.24 0.30 0.26 0.40 0.32 0.28 0.25 0.25 0.24 0.22 0.21 0.23 0.28 0.25 0.30 0.32 0.32 0.28 0.24 0.22 0.24 0.23 0.24 0.22 0.15 0.18 0.18 0.17 0.18 0.22 0.23 0.24 0.24 0.26 0.23 0.18 0.18 0.18 0.21 0.20 0.19 0.18 0.16 0.15 0.14 0.13 0.15 0.17 0.17 0.19 0.23 0.23 0.26 0.21 0.34 0.39 0.52 0.52 0.57 0.62 0.63 0.65 0.67 0.67 0.68 0.69 0.72 0.76 0.79 0.82
0.55 0.54 0.46 0.44 0.43 0.42 0.44 0.48 0.48 0.52 0.54 0.52 0.46 0.34 0.28 0.18 0.17 0.29 0.26 0.30 0.34 0.45 0.40 0.31 0.27 0.26 0.25 0.21 0.22 0.26 0.25 0.30 0.29 0.30 0.31 0.27 0.24 0.20 0.22 0.24 0.24 0.22 0.19 0.18 0.15 0.16 0.14 0.15 0.19 0.21 0.18 0.25 0.23 0.23 0.22 0.20 0.21 0.20 0.22 0.20 0.17 0.16 0.14 0.12 0.14 0.13 0.14 0.16 0.20 0.27 0.20 0.17 0.23 0.30 0.55 0.59 0.64 0.66 0.68 0.68 0.71 0.72 0.73 0.74 0.77 0.80 0.82 0.83
0.53 0.50 0.46 0.42 0.42 0.44 0.46 0.45 0.46 0.52 0.53 0.48 0.37 0.29 0.19 0.18 0.24 0.26 0.29 0.35 0.38 0.42 0.36 0.34 0.28 0.25 0.24 0.25 0.26 0.28 0.28 0.25 0.29 0.29 0.28 0.27 0.21 0.21 0.21 0.22 0.24 0.22 0.21 0.15 0.17 0.17 0.15 0.16 0.21 0.23 0.23 0.25 0.23 0.26 0.26 0.24 0.22 0.22 0.22 0.23 0.19 0.17 0.20 0.15 0.17 0.16 0.17 0.17 0.18 0.21 0.22 0.34 0.33 0.58 0.64 0.65 0.66 0.65 0.68 0.69 0.71 0.68 0.71 0.73 0.71 0.74 0.78 0.82
0.49 0.45 0.46 0.36 0.37 0.42 0.47 0.43 0.46 0.50 0.47 0.42 0.32 0.24 0.20 0.22 0.22 0.34 0.36 0.44 0.41 0.38 0.33 0.32 0.29 0.26 0.25 0.24 0.27 0.28 0.30 0.25 0.25 0.27 0.27 0.27 0.26 0.22 0.24 0.25 0.23 0.23 0.19 0.16 0.19 0.15 0.17 0.16 0.22 0.23 0.25 0.25 0.26 0.27 0.25 0.26 0.16 0.21 0.20 0.16 0.18 0.24 0.21 0.18 0.19 0.21 0.20 0.18 0.17 0.30 0.28 0.38 0.52 0.58 0.63 0.63 0.62 0.63 0.67 0.68 0.69 0.68 0.71 0.71 0.67 0.68 0.71 0.73
0.42 0.44 0.35 0.37 0.40 0.47 0.47 0.44 0.44 0.42 0.42 0.36 0.28 0.21 0.24 0.24 0.34 0.39 0.41 0.39 0.40 0.38 0.33 0.25 0.26 0.26 0.23 0.22 0.24 0.27 0.27 0.27 0.25 0.23 0.22 0.26 0.24 0.26 0.24 0.25 0.28 0.24 0.24 0.21 0.20 0.25 0.16 0.17 0.23 0.22 0.21 0.26 0.28 0.28 0.28 0.26 0.26 0.22 0.17 0.20 0.26 0.27 0.24 0.18 0.14 0.16 0.15 0.13 0.20 0.27 0.23 0.28 0.29 0.24 0.57 0.57 0.54 0.58 0.61 0.62 0.67 0.69 0.70 0.67 0.66 0.66 0.69 0.71
0.41 0.42 0.43 0.42 0.46 0.51 0.51 0.46 0.41 0.39 0.35 0.30 0.24 0.26 0.32 0.24 0.37 0.40 0.44 0.41 0.38 0.38 0.30 0.26 0.28 0.30 0.24 0.23 0.23 0.25 0.27 0.22 0.23 0.22 0.21 0.23 0.21 0.27 0.26 0.25 0.28 0.26 0.26 0.27 0.23 0.22 0.24 0.17 0.21 0.24 0.24 0.26 0.28 0.27 0.26 0.28 0.28 0.24 0.19 0.27 0.19 0.16 0.15 0.18 0.16 0.12 0.12 0.12 0.19 0.26 0.29 0.28 0.29 0.30 0.44 0.46 0.47 0.51 0.55 0.62 0.64 0.64 0.66 0.64 0.64 0.67 0.70 0.74
0.45 0.45 0.36 0.47 0.55 0.55 0.52 0.45 0.38 0.35 0.30 0.22 0.22 0.22 0.26 0.31 0.39 0.39 0.40 0.38 0.38 0.39 0.29 0.29 0.28 0.29 0.28 0.23 0.23 0.26 0.26 0.20 0.23 0.21 0.20 0.21 0.19 0.25 0.24 0.25 0.25 0.28 0.28 0.28 0.24 0.24 0.24 0.18 0.20 0.26 0.25 0.27 0.26 0.24 0.19 0.22 0.26 0.29 0.29 0.26 0.27 0.22 0.19 0.16 0.16 0.17 0.15 0.12 0.15 0.22 0.28 0.22 0.33 0.35 0.43 0.45 0.50 0.53 0.54 0.58 0.59 0.62 0.63 0.63 0.63 0.66 0.68 0.70
0.45 0.41 0.35 0.58 0.62 0.62 0.55 0.41 0.37 0.37 0.28 0.18 0.21 0.22 0.31 0.31 0.33 0.38 0.39 0.38 0.37 0.36 0.30 0.29 0.32 0.28 0.28 0.26 0.25 0.22 0.25 0.24 0.22 0.22 0.21 0.22 0.22 0.30 0.26 0.26 0.24 0.25 0.29 0.30 0.27 0.29 0.21 0.25 0.18 0.24 0.28 0.27 0.21 0.22 0.21 0.22 0.20 0.22 0.23 0.23 0.24 0.23 0.26 0.23 0.21 0.17 0.15 0.14 0.14 0.17 0.18 0.23 0.33 0.45 0.47 0.50 0.54 0.56 0.57 0.56 0.59 0.61 0.61 0.62 0.64 0.65 0.67 0.69
0.54 0.44 0.44 0.67 0.64 0.62 0.46 0.39 0.33 0.29 0.24 0.26 0.28 0.25 0.26 0.27 0.33 0.39 0.40 0.39 0.39 0.39 0.31 0.30 0.31 0.28 0.27 0.25 0.24 0.26 0.23 0.24 0.24 0.23 0.24 0.23 0.28 0.22 0.34 0.27 0.27 0.24 0.27 0.29 0.28 0.28 0.22 0.22 0.20 0.23 0.23 0.23 0.25 0.31 0.30 0.27 0.26 0.24 0.22 0.22 0.23 0.21 0.20 0.16 0.16 0.21 0.19 0.16 0.15 0.16 0.14 0.21 0.38 0.54 0.54 0.56 0.59 0.59 0.61 0.59 0.59 0.60 0.61 0.63 0.64 0.67 0.68 0.66
0.46 0.35 0.44 0.70 0.63 0.51 0.36 0.27 0.30 0.36 0.29 0.25 0.24 0.26 0.23 0.33 0.34 0.38 0.37 0.36 0.38 0.32 0.35 0.31 0.31 0.29 0.28 0.27 0.26 0.25 0.25 0.25 0.27 0.26 0.27 0.23 0.33 0.32 0.35 0.40 0.29 0.25 0.24 0.24 0.25 0.29 0.27 0.25 0.24 0.21 0.23 0.26 0.31 0.36 0.35 0.34 0.32 0.30 0.27 0.24 0.25 0.24 0.23 0.19 0.15 0.18 0.20 0.19 0.21 0.21 0.17 0.22 0.48 0.58 0.59 0.60 0.61 0.62 0.63 0.62 0.61 0.62 0.62 0.63 0.65 0.66 0.68 0.69
0.46 0.44 0.67 0.65 0.55 0.47 0.36 0.27 0.33 0.30 0.27 0.29 0.34 0.28 0.29 0.32 0.33 0.38 0.34 0.35 0.33 0.34 0.32 0.31 0.30 0.29 0.31 0.28 0.26 0.26 0.29 0.28 0.30 0.27 0.31 0.31 0.36 0.41 0.44 0.40 0.33 0.25 0.26 0.26 0.26 0.29 0.29 0.23 0.22 0.23 0.27 0.32 0.35 0.38 0.38 0.37 0.33 0.30 0.31 0.31 0.26 0.23 0.24 0.22 0.21 0.21 0.19 0.20 0.17 0.18 0.15 0.27 0.49 0.60 0.60 0.62 0.63 0.65 0.65 0.63 0.60 0.61 0.62 0.63 0.65 0.67 0.68 0.69
0.49 0.50 0.50 0.57 0.58 0.58 0.33 0.21 0.21 0.23 0.27 0.29 0.26 0.23 0.28 0.29 0.33 0.35 0.34 0.35 0.33 0.31 0.31 0.30 0.31 0.35 0.32 0.34 0.29 0.27 0.31 0.27 0.37 0.34 0.31 0.37 0.35 0.50 0.49 0.45 0.38 0.28 0.23 0.25 0.19 0.29 0.20 0.24 0.22 0.21 0.21 0.25 0.29 0.33 0.32 0.35 0.34 0.31 0.29 0.31 0.32 0.29 0.27 0.26 0.25 0.25 0.19 0.20 0.20 0.16 0.12 0.24 0.43 0.56 0.58 0.59 0.60 0.59 0.59 0.60 0.62 0.60 0.62 0.64 0.66 0.68 0.70 0.71
0.52 0.57 0.52 0.45 0.59 0.53 0.28 0.31 0.27 0.21 0.22 0.20 0.20 0.19 0.24 0.33 0.43 0.41 0.39 0.35 0.35 0.33 0.32 0.30 0.32 0.35 0.36 0.37 0.34 0.35 0.36 0.32 0.32 0.39 0.38 0.37 0.40 0.50 0.50 0.49 0.47 0.39 0.37 0.36 0.29 0.30 0.21 0.24 0.21 0.18 0.16 0.15 0.16 0.18 0.20 0.24 0.27 0.33 0.34 0.32 0.32 0.27 0.25 0.23 0.19 0.21 0.17 0.22 0.22 0.18 0.18 0.32 0.46 0.52 0.53 0.56 0.57 0.57 0.60 0.60 0.63 0.63 0.63 0.65 0.66 0.68 0.69 0.71
0.49 0.38 0.44 0.41 0.48 0.48 0.40 0.46 0.40 0.30 0.25 0.22 0.19 0.22 0.35 0.37 0.41 0.43 0.41 0.35 0.37 0.34 0.34 0.33 0.33 0.35 0.36 0.37 0.34 0.34 0.34 0.39 0.32 0.34 0.36 0.36 0.42 0.45 0.50 0.50 0.49 0.45 0.43 0.40 0.36 0.31 0.25 0.29 0.25 0.22 0.20 0.19 0.21 0.25 0.35 0.36 0.32 0.26 0.29 0.30 0.30 0.30 0.30 0.26 0.24 0.20 0.17 0.22 0.20 0.22 0.24 0.31 0.36 0.42 0.45 0.50 0.55 0.55 0.57 0.58 0.60 0.61 0.62 0.65 0.67 0.68 0.68 0.68
0.58 0.45 0.38 0.31 0.40 0.42 0.37 0.42 0.38 0.36 0.28 0.30 0.22 0.36 0.37 0.39 0.40 0.39 0.41 0.32 0.36 0.34 0.33 0.33 0.31 0.29 0.31 0.35 0.34 0.34 0.38 0.36 0.39 0.36 0.36 0.37 0.42 0.45 0.51 0.50 0.49 0.50 0.48 0.42 0.43 0.33 0.27 0.25 0.29 0.28 0.28 0.29 0.32 0.32 0.37 0.37 0.31 0.33 0.30 0.29 0.32 0.31 0.29 0.26 0.22 0.19 0.23 0.22 0.18 0.26 0.31 0.26 0.32 0.40 0.45 0.48 0.53 0.58 0.59 0.59 0.60 0.62 0.62 0.63 0.65 0.66 0.66 0.67
0.43 0.52 0.50 0.46 0.33 0.29 0.31 0.31 0.38 0.34 0.35 0.37 0.38 0.44 0.41 0.39 0.37 0.33 0.37 0.39 0.37 0.37 0.30 0.30 0.31 0.32 0.31 0.33 0.36 0.33 0.37 0.36 0.37 0.34 0.40 0.40 0.39 0.42 0.42 0.47 0.45 0.49 0.49 0.43 0.45 0.34 0.28 0.25 0.33 0.30 0.30 0.35 0.37 0.35 0.37 0.35 0.35 0.37 0.35 0.34 0.31 0.32 0.30 0.26 0.27 0.28 0.26 0.20 0.17 0.26 0.31 0.29 0.35 0.41 0.46 0.51 0.55 0.58 0.59 0.58 0.61 0.62 0.63 0.65 0.66 0.64 0.64 0.64
0.57 0.58 0.53 0.57 0.37 0.38 0.33 0.36 0.35 0.32 0.34 0.42 0.42 0.44 0.40 0.38 0.35 0.37 0.35 0.35 0.35 0.33 0.35 0.26 0.29 0.31 0.31 0.33 0.33 0.34 0.36 0.31 0.33 0.39 0.37 0.37 0.37 0.37 0.35 0.39 0.46 0.52 0.48 0.43 0.43 0.44 0.35 0.30 0.36 0.34 0.32 0.34 0.36 0.37 0.38 0.35 0.36 0.35 0.35 0.36 0.37 0.35 0.33 0.33 0.32 0.34 0.31 0.27 0.29 0.32 0.34 0.34 0.40 0.43 0.48 0.53 0.59 0.60 0.61 0.61 0.62 0.61 0.61 0.62 0.61 0.61 0.62 0.62
0.44 0.50 0.48 0.51 0.47 0.39 0.37 0.36 0.36 0.35 0.34 0.43 0.38 0.41 0.44 0.38 0.35 0.37 0.38 0.36 0.31 0.32 0.36 0.30 0.31 0.32 0.31 0.32 0.31 0.31 0.35 0.38 0.37 0.33 0.39 0.38 0.36 0.38 0.36 0.37 0.37 0.46 0.48 0.43 0.43 0.44 0.33 0.34 0.38 0.37 0.32 0.33 0.38 0.40 0.40 0.37 0.35 0.32 0.37 0.38 0.39 0.41 0.41 0.40 0.38 0.38 0.37 0.35 0.37 0.36 0.33 0.33 0.44 0.50 0.52 0.57 0.60 0.63 0.62 0.60 0.60 0.61 0.61 0.60 0.60 0.60 0.61 0.61
0.58 0.68 0.62 0.44 0.32 0.36 0.37 0.37 0.35 0.35 0.36 0.41 0.41 0.43 0.42 0.39 0.36 0.38 0.37 0.40 0.36 0.32 0.33 0.31 0.33 0.31 0.33 0.31 0.31 0.32 0.37 0.37 0.38 0.38 0.40 0.38 0.33 0.40 0.35 0.37 0.42 0.36 0.41 0.40 0.42 0.43 0.40 0.38 0.41 0.36 0.28 0.30 0.37 0.37 0.38 0.39 0.37 0.35 0.36 0.37 0.37 0.37 0.35 0.39 0.37 0.41 0.37 0.33 0.37 0.37 0.33 0.33 0.44 0.51 0.55 0.57 0.57 0.57 0.57 0.58 0.58 0.59 0.61 0.61 0.61 0.63 0.64 0.63
0.66 0.74 0.72 0.52 0.33 0.40 0.36 0.40 0.38 0.35 0.32 0.41 0.44 0.43 0.40 0.39 0.40 0.38 0.34 0.40 0.41 0.40 0.37 0.34 0.34 0.31 0.30 0.30 0.30 0.33 0.37 0.38 0.38 0.41 0.44 0.45 0.47 0.46 0.46 0.45 0.43 0.37 0.37 0.37 0.44 0.39 0.39 0.39 0.36 0.34 0.28 0.30 0.39 0.39 0.37 0.36 0.34 0.29 0.32 0.37 0.40 0.40 0.41 0.44 0.45 0.47 0.45 0.44 0.35 0.30 0.32 0.43 0.47 0.52 0.51 0.53 0.55 0.58 0.58 0.58 0.58 0.60 0.63 0.62 0.61 0.63 0.65 0.66
Wind_Speed
28 28 29 29 29 30 30 31 30 30 30 30 30 29 29 29 29 29 28 28 27 27 27 26 26 25 25 26 26 26 26 26 27 27 27 26 26 27 27 25 23 25 24 22 21 21 20 21 21 20 20 20 19 19 19 18 17 16 15 15 15 15 15 14 14 13 11 11 12 11 10 11 12 11 10 9 7 7 7 8 9 10 10 9 10 8 8 9
28 28 29 29 29 29 30 30 31 31 31 30 30 30 30 29 30 29 29 28 28 28 27 27 26 26 26 26 26 26 26 26 27 28 28 27 28 28 28 27 24 25 24 23 23 22 21 21 21 21 20 20 19 19 19 19 18 16 15 15 16 16 15 14 14 13 12 12 12 12 11 11 12 11 11 10 9 8 8 9 9 10 10 9 9 8 9 9
28 28 28 29 29 29 29 30 31 31 31 31 31 30 30 30 30 30 29 29 28 28 27 27 27 26 26 26 26 26 26 26 26 27 28 28 30 30 28 27 25 25 25 24 24 23 22 22 22 21 20 20 20 20 19 19 18 17 16 16 16 16 15 15 14 14 13 13 13 12 11 10 12 12 11 10 9 9 9 10 9 10 10 9 9 9 9 9
28 28 28 28 29 29 29 29 30 31 31 31 31 30 30 30 30 30 30 29 29 28 28 27 27 26 26 26 25 25 25 25 25 25 25 26 28 29 28 28 26 26 26 25 24 23 22 22 22 21 20 20 20 20 20 19 18 17 17 17 17 16 16 15 15 15 15 14 14 13 10 10 11 11 10 9 8 10 11 11 11 11 11 10 10 10 10 10
28 28 28 28 28 28 29 28 29 30 31 31 31 31 30 30 30 30 30 29 29 29 28 27 27 27 26 26 25 24 23 23 23 23 23 23 25 27 28 28 27 26 26 25 24 23 23 22 22 21 20 20 20 19 20 20 18 17 17 18 18 17 16 15 15 15 14 13 13 12 10 10 10 10 11 10 9 11 11 11 11 11 11 11 10 11 11 11
29 29 29 29 28 28 28 28 28 28 30 31 31 31 30 30 30 30 30 29 29 29 28 28 27 27 26 26 24 24 23 23 21 19 21 22 23 24 26 27 27 26 26 25 24 23 23 23 23 22 20 20 20 20 20 20 19 18 18 19 19 18 17 15 15 15 14 13 13 13 12 11 10 11 11 11 10 11 11 10 10 11 11 11 11 11 11 12
29 29 29 29 29 29 29 28 28 28 29 30 30 31 30 30 30 30 30 29 29 29 28 28 27 27 26 25 24 24 24 25 24 21 21 21 22 23 25 27 27 27 25 25 24 24 23 23 24 22 20 20 21 21 20 19 19 19 19 18 19 19 18 17 16 17 16 15 16 14 13 13 12 11 12 12 12 11 11 10 10 11 11 11 11 11 12 12
30 30 30 30 30 30 29 29 29 29 28 29 29 30 30 30 30 30 30 29 29 29 28 28 27 27 26 25 25 24 25 26 27 25 23 22 22 22 24 26 27 27 26 25 25 24 24 24 25 23 20 20 20 20 20 19 19 19 20 19 19 19 18 18 18 18 17 17 16 14 15 15 14 12 12 13 12 11 11 10 10 11 12 12 12 12 12 12
30 30 30 30 30 30 30 30 29 29 29 29 29 29 30 30 30 30 30 30 29 29 28 28 27 27 26 25 25 24 25 26 26 26 24 23 22 22 23 26 28 27 25 25 25 25 25 25 25 23 21 21 20 20 21 20 19 20 21 20 19 19 19 18 18 18 17 17 15 14 16 16 14 13 12 13 12 12 11 11 11 12 12 13 13 12 12 12
31 31 31 31 31 30 30 30 30 29 29 30 29 29 29 30 30 30 29 29 29 29 28 28 28 27 26 26 25 24 24 24 24 24 24 23 23 23 24 26 28 27 25 25 25 25 25 24 25 23 21 21 21 21 21 21 19 20 21 21 21 20 19 18 18 18 17 17 16 15 16 14 12 12 12 13 13 12 11 11 12 12 13 13 13 13 12 12
32 31 31 31 30 30 30 30 30 29 30 30 30 30 30 30 30 30 29 29 29 29 29 28 28 27 27 26 25 25 23 22 23 22 22 23 23 24 24 25 27 27 26 25 25 26 24 24 24 22 21 21 21 21 21 21 20 19 19 19 20 19 18 18 18 18 17 16 17 16 15 13 11 12 13 14 13 12 12 12 13 13 13 13 13 13 12 12
31 31 31 30 30 30 30 30 29 29 30 30 30 30 30 30 30 30 29 29 29 29 28 28 28 27 27 27 27 27 24 23 22 21 22 23 23 24 24 25 26 26 26 25 25 26 25 24 24 23 22 21 20 20 20 21 20 19 18 19 19 17 17 18 18 18 17 16 17 15 14 14 13 13 14 14 13 12 12 12 13 14 14 13 13 13 12 11
30 30 30 30 30 29 29 29 29 29 30 30 30 30 30 30 30 30 30 29 29 28 28 28 28 27 27 27 27 27 27 26 25 23 24 23 23 24 24 25 26 26 25 24 25 26 26 25 24 24 22 21 20 20 19 19 20 19 18 18 18 16 17 17 16 16 16 16 16 15 14 14 14 14 15 14 14 13 12 12 13 14 14 14 13 13 12 12
29 29 29 29 29 29 29 29 29 29 29 30 30 30 30 30 30 30 29 29 29 28 28 28 27 27 27 27 27 27 28 28 28 27 25 25 25 25 25 25 25 26 25 24 24 25 27 26 24 24 23 21 21 20 18 17 18 18 18 17 17 17 17 17 16 15 15 16 16 15 14 15 15 16 16 16 15 14 14 13 13 13 13 14 14 14 13 12
29 28 28 28 28 28 28 28 28 28 29 29 30 30 30 30 30 30 29 29 29 28 28 27 27 26 26 27 27 26 27 27 28 28 26 26 26 26 25 25 25 26 26 25 24 24 26 26 24 23 23 22 21 20 18 17 16 17 17 17 17 17 17 16 15 16 16 15 15 14 14 14 15 15 16 15 15 15 15 14 14 14 14 14 14 13 13 13
28 27 27 27 27 27 27 27 28 28 28 29 29 30 30 30 30 30 30 29 28 27 27 26 26 26 25 25 25 25 26 26 26 27 27 26 27 26 26 25 25 25 26 26 26 24 25 26 25 23 23 22 21 20 18 18 17 17 17 17 17 17 17 16 16 16 16 16 15 14 15 14 13 13 12 13 14 14 14 14 14 14 14 14 13 13 14 13
26 26 26 26 26 26 26 27 27 27 28 28 28 29 30 30 30 30 29 28 27 26 26 25 25 25 25 24 24 24 25 24 25 26 27 27 27 26 25 25 25 25 25 25 26 25 24 25 24 23 22 21 21 20 20 20 19 17 17 17 16 16 17 17 17 16 16 16 15 15 16 16 14 13 11 13 14 13 14 14 14 15 14 14 13 13 14 13
24 25 25 25 25 25 26 26 26 27 27 27 28 28 28 28 28 28 27 27 26 25 25 25 24 24 25 25 24 24 22 23 24 25 26 27 27 26 26 25 25 25 25 25 25 26 25 25 23 22 22 22 21 21 21 21 19 17 17 17 16 15 16 17 17 17 15 15 16 15 16 17 16 14 13 14 15 14 14 14 14 14 14 14 14 14 14 13
23 24 24 24 24 25 25 25 26 26 26 26 26 26 26 25 25 26 26 27 26 25 24 25 25 23 21 22 23 23 23 23 23 25 26 27 27 26 26 25 26 26 26 25 25 26 26 24 23 23 23 23 23 22 22 20 19 18 17 17 16 16 17 18 18 18 16 15 16 16 17 17 15 14 15 14 13 13 13 12 12 13 13 14 14 14 14 14
23 23 23 24 24 24 24 24 25 25 25 24 24 23 24 24 25 25 26 28 29 27 25 25 27 26 22 20 20 20 21 22 23 24 26 27 27 26 25 26 26 25 26 26 26 26 26 25 24 24 23 23 23 22 21 19 18 17 16 16 16 16 17 18 18 17 16 15 16 16 17 16 14 14 14 12 11 11 11 10 12 13 13 14 14 14 14 14
22 23 23 23 23 23 23 23 23 23 22 22 22 21 22 23 24 24 25 27 29 30 29 27 28 28 26 23 20 19 20 21 22 24 26 27 26 26 26 27 26 25 26 26 25 25 25 25 25 24 24 22 22 21 20 19 18 17 17 16 16 17 18 18 17 15 14 13 14 15 15 14 13 12 11 9 9 9 9 9 10 11 12 13 13 13 12 13
22 22 22 22 21 21 21 21 21 21 20 20 20 20 21 21 21 22 22 24 26 29 30 29 29 29 28 26 24 22 21 21 22 23 26 27 26 26 26 26 27 26 25 25 25 25 24 25 25 24 22 20 19 20 19 19 19 18 18 17 16 17 17 17 16 14 12 12 14 13 13 13 13 13 10 7 8 8 7 8 8 9 11 11 12 12 12 13
21 21 21 20 20 20 19 19 19 19 19 19 19 19 20 19 19 20 21 22 23 25 27 28 28 28 28 26 25 24 22 22 23 24 26 27 26 26 26 26 26 26 25 25 26 26 25 25 25 23 21 20 19 19 19 19 19 19 18 18 17 16 15 15 16 14 12 12 13 13 12 12 12 12 10 8 8 7 5 6 6 7 10 11 11 12 12 14
20 20 19 19 19 18 18 17 17 17 17 17 18 19 18 17 17 18 19 20 21 23 24 26 27 27 27 26 24 24 23 23 23 24 27 27 26 26 26 26 26 25 25 26 25 25 25 24 23 22 22 21 20 20 20 20 20 20 20 19 17 17 16 15 15 13 12 11 12 12 11 11 11 10 10 9 7 6 5 5 5 7 9 10 10 11 13 14
18 18 18 17 17 17 16 15 15 15 16 17 17 18 17 16 15 16 17 17 19 20 21 24 24 25 26 25 24 23 22 23 25 25 26 28 27 25 25 25 25 25 26 25 24 25 25 23 21 21 22 22 21 21 21 21 20 20 20 20 19 17 17 15 13 11 11 11 12 13 12 11 11 9 9 9 7 5 5 5 5 6 7 9 10 11 12 13
16 16 16 15 15 14 14 13 13 14 15 16 17 15 15 14 14 15 15 15 17 19 20 21 22 23 25 25 24 22 20 22 25 25 26 27 27 25 24 24 23 25 26 25 24 24 23 23 22 21 22 22 22 21 21 21 20 20 21 21 19 18 17 15 13 12 13 13 13 13 13 12 11 9 9 9 7 6 5 5 5 6 6 7 9 10 11 12
15 14 13 13 13 12 12 13 13 13 14 15 15 15 14 13 14 15 14 12 15 18 19 20 21 22 23 24 24 22 18 20 23 25 26 27 27 25 24 24 23 24 25 24 23 23 23 23 22 20 21 22 22 21 21 21 20 20 20 20 19 19 18 16 15 14 14 14 13 12 13 13 10 9 10 9 7 5 4 3 4 5 5 6 6 7 9 10
13 12 11 11 11 11 12 13 13 14 15 14 14 14 14 13 14 14 13 12 13 16 17 19 20 20 21 23 25 23 18 19 22 23 25 26 26 25 24 24 24 24 25 24 23 22 22 23 23 21 21 21 22 22 21 21 20 20 19 18 19 18 17 16 15 15 14 14 14 14 13 12 11 11 10 9 8 6 4 4 4 4 4 5 5 6 7 8
12 12 11 10 10 11 12 13 14 15 16 14 13 14 13 14 15 13 12 12 13 14 16 18 20 20 20 22 25 23 18 18 20 21 24 25 25 24 23 24 24 24 24 23 22 21 20 22 23 22 20 21 21 21 21 22 20 20 19 17 16 16 15 15 15 15 13 13 16 16 14 13 12 11 10 10 9 8 6 6 5 4 4 4 5 6 6 8
12 12 11 11 11 11 12 13 14 15 15 15 14 13 13 14 15 13 13 13 13 13 14 17 19 20 21 21 23 23 19 18 19 20 22 23 23 23 22 22 22 22 22 21 21 21 18 19 21 21 20 20 20 20 21 21 19 19 18 16 15 14 14 14 15 15 14 14 16 16 14 14 12 12 12 11 10 9 8 7 6 5 4 4 5 6 6 7
12 12 12 11 11 11 11 12 14 15 15 14 13 13 14 14 14 13 13 13 13 12 13 17 18 20 21 21 22 23 21 18 20 22 22 22 22 22 22 23 22 21 21 20 21 20 18 18 20 20 20 19 18 18 19 19 18 18 18 18 17 15 14 14 14 15 14 14 15 15 14 14 13 13 12 11 10 9 8 8 7 6 5 5 5 6 6 7
13 13 12 12 12 12 13 13 13 14 14 13 13 14 15 14 13 15 13 10 11 11 12 16 18 19 21 20 21 23 22 19 20 21 22 22 22 23 23 24 24 22 21 22 21 19 20 21 20 19 20 20 18 17 17 17 18 19 19 19 18 15 15 15 15 15 15 15 14 14 14 13 13 14 13 11 9 9 9 8 7 6 6 6 6 6 6 7
13 12 12 13 13 13 15 15 15 14 13 13 14 14 15 13 14 16 13 9 10 10 11 14 17 18 20 20 21 23 21 19 20 20 21 22 22 23 22 22 23 22 20 21 21 19 19 20 20 19 20 21 20 18 18 19 19 21 21 21 19 16 16 16 15 14 15 15 14 14 14 13 13 14 13 11 10 10 10 8 7 6 5 6 6 6 6 7
12 11 11 12 12 14 15 16 15 15 14 14 15 15 15 14 13 14 14 10 9 10 10 13 16 17 20 20 21 23 21 19 20 20 20 22 22 23 22 20 21 21 18 19 20 20 19 19 21 21 20 21 21 20 20 19 19 21 21 20 19 18 16 16 16 15 15 14 13 13 13 14 14 13 12 12 12 11 10 8 7 6 5 5 5 5 6 6
10 10 11 11 12 14 15 16 16 16 15 15 16 15 16 15 13 13 12 9 8 10 10 11 15 18 19 19 20 23 21 18 19 19 20 21 22 23 23 21 21 20 19 19 19 19 18 18 20 20 19 20 21 19 18 17 17 19 20 19 20 20 17 15 15 16 15 13 13 13 13 14 15 14 13 13 13 11 9 8 7 6 6 5 5 6 6 6
9 9 10 11 12 13 15 17 17 17 17 16 16 16 16 16 13 12 11 7 8 10 10 11 16 19 19 19 21 23 21 18 19 19 19 20 20 21 22 21 20 20 19 19 18 17 18 17 18 19 19 20 20 18 18 18 18 18 20 20 20 19 17 16 15 14 13 13 14 14 14 14 15 14 14 14 13 12 10 8 8 7 6 6 6 7 6 7
8 8 9 11 12 13 16 18 18 18 17 16 17 16 16 15 14 12 10 5 6 10 9 12 17 19 19 19 21 24 21 18 19 18 18 19 19 20 21 20 20 21 20 18 17 17 17 17 17 18 20 20 19 17 16 17 18 18 20 21 19 16 16 16 15 13 13 14 15 15 15 16 15 15 15 15 14 13 11 9 8 8 7 7 7 7 8 8
8 8 9 10 12 14 17 19 19 17 16 16 17 16 16 15 13 11 8 4 6 10 10 13 16 17 19 20 20 23 22 20 19 18 18 18 17 19 20 19 20 21 21 19 16 16 17 16 16 18 18 18 17 17 15 16 17 17 19 19 18 16 16 16 15 15 15 15 15 14 15 17 17 15 16 17 16 14 12 10 9 8 8 8 8 8 9 9
8 9 9 10 12 15 18 19 18 16 16 17 17 17 16 14 11 11 8 3 7 11 10 12 16 16 17 19 19 21 22 20 19 18 17 17 16 17 19 19 19 21 21 20 17 16 16 16 16 17 18 17 17 17 18 18 17 16 17 18 17 17 17 17 16 16 15 15 15 15 15 17 18 17 16 17 16 14 12 10 10 9 8 8 9 9 10 10
9 10 10 11 13 16 19 19 17 16 16 17 17 16 15 12 11 11 8 5 9 12 10 11 15 15 16 18 18 19 21 19 18 17 16 16 15 15 17 18 18 20 21 21 19 16 16 16 16 16 17 17 17 18 19 20 19 17 18 19 18 16 16 16 16 15 15 15 15 15 16 18 19 17 16 16 15 14 12 11 10 10 9 9 9 9 10 10
10 10 11 12 14 17 19 17 15 15 16 16 16 16 14 11 11 10 7 6 10 12 10 11 14 15 15 17 17 17 19 18 17 16 15 15 15 14 15 16 18 19 19 20 21 19 17 17 17 16 16 16 18 19 19 19 20 19 19 20 19 17 16 15 15 16 15 15 16 16 16 18 18 17 16 15 14 13 12 11 10 10 9 9 9 9 10 11
11 11 11 13 16 19 18 16 14 15 15 16 16 16 14 11 11 11 7 7 11 11 10 11 13 14 14 16 17 17 17 17 16 16 15 15 15 14 14 15 17 19 19 19 21 20 19 17 16 17 17 16 17 18 19 19 19 18 18 19 18 18 17 16 15 17 16 15 15 14 14 16 17 16 15 14 13 13 12 11 10 10 10 9 9 10 10 11
12 12 11 15 19 18 16 15 15 15 15 16 15 15 14 12 11 11 9 8 10 11 10 11 12 13 14 15 16 17 17 16 14 15 15 14 14 13 12 13 16 17 17 17 19 19 19 18 17 17 16 16 15 16 17 18 17 17 17 17 17 18 18 17 16 16 16 16 15 14 14 16 16 15 14 13 13 12 11 10 10 10 10 9 9 10 10 11
12 12 12 17 19 17 15 16 16 16 15 15 15 14 14 13 12 12 10 10 11 11 11 11 11 12 12 14 16 17 17 15 14 14 14 14 13 11 10 12 15 16 16 17 18 19 19 19 18 16 15 14 14 14 15 17 17 18 18 17 17 17 16 16 15 14 15 17 16 14 15 16 15 14 14 14 13 12 11 10 10 10 10 9 9 9 10 10
12 13 13 16 18 16 15 16 16 16 16 16 15 14 13 14 14 14 12 11 11 12 12 11 11 11 11 13 14 14 14 14 14 14 14 14 13 11 9 9 12 14 14 15 16 17 18 18 19 18 16 16 16 16 17 17 17 17 17 16 16 16 16 16 15 14 15 17 16 15 15 15 15 14 14 14 13 13 12 11 9 9 9 10 10 9 10 10
13 13 14 16 17 16 15 16 16 16 17 16 15 14 14 14 13 13 13 13 11 11 12 11 11 11 10 11 12 12 12 13 14 14 15 14 13 12 10 9 10 11 12 13 13 16 16 16 17 17 17 17 17 17 16 16 16 16 16 15 15 16 16 15 15 16 16 16 16 16 15 15 15 15 14 14 14 13 12 11 9 9 10 10 10 9 10 10
13 13 14 15 16 16 16 17 17 17 17 17 16 15 14 14 14 12 13 13 11 11 12 11 10 10 10 11 12 12 11 12 13 13 14 14 13 12 11 10 9 9 11 11 11 14 15 14 15 15 14 15 15 15 14 14 14 14 14 14 14 14 15 15 15 17 16 15 16 17 16 15 15 15 13 13 14 13 12 10 9 9 10 9 9 10 10 10
13 11 13 14 15 16 17 17 18 19 18 16 16 15 13 14 14 13 13 13 11 10 11 10 9 9 10 11 12 12 11 12 12 13 13 13 12 12 10 10 9 9 10 11 10 12 14 14 14 15 14 13 13 13 13 13 13 12 12 12 12 12 13 14 15 16 16 16 17 17 16 15 14 13 12 12 12 11 11 10 10 10 9 9 10 11 11 11
13 11 12 14 14 16 17 18 19 19 18 17 16 15 14 14 15 14 13 12 11 9 10 11 9 8 9 10 11 11 12 13 13 13 13 12 12 11 11 11 10 9 9 10 10 11 13 13 13 14 14 12 11 12 12 13 13 12 10 10 11 11 11 12 14 15 14 14 15 15 15 13 13 13 12 12 12 11 11 11 10 9 9 10 11 11 11 10
13 11 12 13 13 16 17 17 18 18 17 17 17 15 14 13 14 13 12 12 12 10 10 11 10 9 8 9 10 11 12 13 14 13 13 13 12 12 11 12 11 10 9 10 11 11 12 12 13 14 13 12 11 11 11 12 12 11 10 10 11 12 12 11 12 13 12 13 13 12 13 14 14 13 12 12 12 12 12 11 10 9 10 10 10 11 10 10
12 11 12 13 14 16 17 17 17 17 17 17 17 15 14 13 13 13 11 11 12 11 11 13 12 10 8 8 9 11 12 13 13 13 13 13 12 12 11 11 12 11 10 10 11 11 12 13 13 13 12 13 12 12 12 12 11 11 11 11 12 12 12 12 12 12 13 13 12 12 14 15 14 13 12 12 12 12 12 11 10 10 10 9 9 10 10 10
12 11 12 14 15 16 17 17 16 17 17 17 17 15 14 13 13 13 11 10 10 10 11 12 12 10 9 9 10 11 13 12 12 12 12 11 10 10 10 9 9 10 10 11 10 11 12 13 14 13 13 13 14 13 13 13 12 13 14 14 14 14 13 12 12 12 13 13 13 14 14 14 14 14 13 12 12 12 12 12 11 10 9 9 9 9 9 10
Wind_Direction
274 273 272 271 270 269 267 266 265 264 263 262 261 260 260 259 259 259 259 259 259 259 260 260 260 261 261 261 260 260 261 258 256 252 247 244 242 241 238 237 236 230 228 228 224 223 224 224 224 222 220 220 221 220 220 222 223 224 223 223 225 224 224 221 222 223 222 228 232 242 245 235 240 238 232 239 243 239 246 255 252 253 260 259 253 244 225 219
274 273 273 272 271 270 268 266 264 263 262 261 260 260 259 259 258 258 258 258 258 259 259 259 260 260 261 261 260 260 260 258 256 252 246 244 242 240 237 235 234 228 225 225 223 220 221 223 222 220 218 218 220 220 219 222 222 221 222 222 223 222 222 220 221 224 224 228 234 244 244 234 235 234 235 240 250 252 251 260 258 254 254 248 245 236 225 222
275 274 273 271 271 270 269 267 264 262 261 261 260 259 259 258 258 257 257 257 258 258 258 259 259 259 260 260 260 260 258 257 255 251 247 244 241 239 235 232 230 226 225 225 223 221 220 221 219 217 218 218 220 219 218 222 221 221 221 221 224 223 224 225 225 228 230 232 235 241 241 240 240 237 240 238 245 255 250 252 253 250 243 238 240 232 226 226
274 274 273 272 271 269 269 269 266 263 261 260 259 259 258 258 258 257 257 257 257 257 257 258 258 259 259 259 259 258 256 255 253 248 247 243 239 237 232 230 226 225 226 225 223 222 221 220 218 217 217 219 221 219 219 221 220 221 219 219 224 222 223 227 227 231 236 233 230 237 240 242 243 238 237 232 243 260 255 247 246 241 231 228 232 229 228 228
274 273 273 272 271 270 268 268 267 265 261 259 259 258 258 257 257 256 256 256 256 256 256 257 257 257 258 259 258 254 251 252 250 245 242 240 238 235 230 227 223 223 224 223 222 221 220 218 218 218 217 219 220 219 222 221 218 221 221 220 223 220 221 228 229 232 235 231 230 236 239 240 241 238 233 228 238 253 254 247 243 237 228 226 229 227 228 229
275 273 272 271 270 269 268 267 267 265 263 260 258 258 257 257 256 256 255 255 255 255 255 255 256 256 257 257 254 249 245 245 247 241 238 238 239 236 229 224 220 221 221 220 220 219 219 217 216 217 217 218 218 219 222 222 219 221 224 223 223 223 223 229 234 238 238 236 233 230 238 243 241 241 235 231 240 250 255 248 241 239 233 230 229 228 228 230
275 274 272 270 270 269 268 267 266 265 263 260 258 257 257 256 255 255 254 254 254 254 254 254 254 254 255 254 250 246 243 244 244 241 241 240 240 235 226 221 218 218 218 217 218 218 218 215 215 216 215 218 219 219 221 222 220 219 224 224 225 226 225 231 239 244 243 239 238 235 243 246 240 244 240 239 249 254 255 247 239 238 233 230 230 231 233 235
275 274 272 271 269 268 267 266 265 264 263 261 259 257 256 255 255 254 254 253 253 253 253 252 253 253 253 250 247 246 244 243 243 242 243 241 239 233 222 218 216 216 216 216 217 217 216 213 214 215 215 219 218 218 220 222 222 219 221 223 225 226 227 235 242 245 245 241 243 244 246 246 242 242 240 245 255 254 249 244 240 235 231 231 230 233 238 242
275 274 273 271 269 268 267 265 264 263 261 260 259 257 256 255 254 254 253 252 252 251 251 251 251 251 250 247 244 246 244 241 243 242 240 238 236 229 220 217 215 215 216 217 216 215 216 214 214 214 215 218 216 218 218 219 223 219 219 222 224 228 233 240 242 242 242 241 242 243 244 248 246 242 244 250 251 248 247 244 238 230 227 229 232 236 241 247
275 274 273 271 269 267 266 265 263 262 260 259 258 257 256 255 254 253 252 252 251 250 250 249 249 248 246 244 241 242 243 241 241 240 236 233 231 224 219 216 214 214 215 216 215 215 216 214 212 212 215 217 216 219 217 216 220 218 218 222 225 231 238 240 239 240 238 238 237 235 240 246 248 246 247 247 242 243 247 242 234 227 227 229 234 242 247 251
275 274 272 270 269 267 266 264 263 261 259 258 257 256 256 255 254 253 251 250 250 249 248 247 247 246 243 241 238 238 240 239 238 235 231 229 225 221 218 215 214 214 215 216 216 215 215 213 210 211 216 217 215 219 219 217 218 218 217 224 228 231 238 237 236 238 234 236 234 228 236 243 244 245 244 240 237 241 241 236 231 225 228 230 237 245 247 249
276 274 271 270 269 267 266 264 262 260 259 257 256 256 256 255 254 253 251 249 249 247 246 245 244 242 241 240 237 237 238 236 234 231 227 225 222 220 218 215 215 215 214 215 216 215 213 211 208 210 215 215 214 218 220 217 217 219 217 223 231 232 237 234 233 234 228 231 230 223 236 245 241 242 244 240 236 240 238 232 227 224 227 232 239 242 242 244
276 274 271 270 268 267 265 264 262 260 258 257 256 255 255 254 253 252 250 249 247 246 244 243 241 239 239 239 238 237 237 235 235 232 227 224 222 220 219 217 217 217 216 216 216 214 213 211 208 210 213 213 215 217 218 217 217 221 220 221 229 234 237 234 231 230 226 230 225 220 235 245 244 246 245 241 236 237 237 233 227 226 230 234 236 236 236 239
277 275 271 269 268 266 265 263 262 260 258 256 256 255 254 253 252 251 249 248 246 244 242 240 238 237 237 238 238 238 237 236 236 233 229 225 222 220 219 217 218 218 217 216 215 215 212 210 210 212 215 215 217 219 219 219 219 221 222 225 228 230 235 237 233 226 225 230 223 219 234 242 248 252 245 238 236 234 234 233 229 227 231 232 231 232 233 236
276 275 272 269 268 266 264 263 262 260 258 256 255 255 254 253 251 249 247 246 244 242 239 238 236 235 237 239 238 238 235 233 233 230 227 223 219 218 217 216 217 218 216 214 214 214 211 210 211 213 217 217 216 218 219 218 220 221 222 229 231 227 232 239 234 226 225 231 226 222 233 241 249 254 246 236 233 231 229 230 228 225 226 226 228 231 232 235
276 274 273 270 268 266 264 263 262 260 259 257 256 255 253 252 250 248 246 243 241 238 236 235 234 232 236 237 236 235 232 230 230 227 225 221 217 216 215 214 216 215 214 213 212 212 210 209 210 213 216 216 213 212 215 218 222 224 221 225 230 226 229 232 232 231 226 227 231 228 230 236 246 254 244 230 229 231 230 230 226 223 222 223 227 230 232 236
276 274 272 271 269 267 265 264 262 260 259 257 256 255 253 251 249 245 242 238 236 234 232 232 231 231 234 235 234 233 230 228 227 224 222 218 215 214 212 213 214 212 210 211 209 209 209 208 209 213 214 214 213 211 214 219 221 225 223 223 228 226 224 226 229 230 225 223 230 232 230 234 243 250 238 225 231 235 236 235 228 223 221 222 226 229 231 234
277 275 273 271 269 267 266 264 262 260 259 257 256 254 251 248 244 240 236 232 231 231 231 231 228 230 233 233 232 229 227 227 225 221 218 215 214 213 212 212 212 208 208 210 209 208 209 210 209 212 213 213 213 212 215 219 217 219 221 220 226 228 224 225 225 226 227 227 228 229 233 238 240 244 240 234 236 237 239 238 230 226 223 222 225 227 229 231
277 276 274 272 270 268 266 264 262 260 258 256 255 252 247 241 238 235 232 229 227 228 231 228 224 226 230 229 227 227 228 227 222 218 214 212 212 212 211 211 209 207 208 210 210 208 207 209 210 211 213 213 214 213 214 217 213 213 218 217 220 225 226 226 226 229 229 231 232 229 234 237 232 236 243 245 244 242 245 239 228 225 223 223 225 227 229 230
277 276 275 273 270 268 266 264 262 260 258 254 252 248 240 237 235 233 231 229 229 229 231 227 223 226 228 226 223 225 228 224 220 217 212 209 208 208 210 210 210 209 209 209 209 209 206 208 212 212 213 214 215 214 213 213 212 212 215 216 217 221 225 225 226 231 230 230 236 231 228 231 227 233 245 249 246 244 245 235 222 219 221 223 226 228 230 232
277 276 275 274 271 269 266 264 261 258 255 251 248 243 236 235 233 232 233 232 232 232 232 230 226 228 229 228 226 226 226 223 221 217 211 208 205 206 210 209 209 209 209 208 207 208 208 209 214 214 213 213 214 214 211 212 213 213 214 215 218 220 223 224 223 231 230 227 235 228 220 226 230 234 241 244 238 238 244 237 226 223 224 227 229 230 231 234
278 277 276 274 272 270 266 263 259 255 252 247 243 237 233 232 231 232 233 232 233 231 230 230 228 229 230 230 230 227 224 221 222 218 210 206 205 207 209 208 208 209 208 207 205 207 210 213 216 214 212 210 213 214 211 212 213 214 215 214 218 221 223 226 226 230 227 223 229 221 211 222 234 231 229 236 235 240 252 236 225 227 227 228 230 229 230 233
280 278 276 273 271 270 265 261 256 251 246 240 235 229 228 229 230 233 230 228 232 229 225 225 225 226 226 227 226 222 218 216 218 218 209 205 206 206 205 206 207 206 206 206 205 207 211 216 216 211 208 208 212 214 210 212 215 215 214 213 217 220 219 223 228 229 223 219 219 209 206 220 233 232 226 233 237 245 260 235 226 232 228 228 228 227 230 232
281 278 275 272 269 266 264 259 251 243 239 235 230 225 226 229 231 230 226 225 228 225 222 220 219 220 220 221 219 215 215 214 215 216 209 203 204 204 204 205 205 205 206 206 205 208 213 216 211 206 208 208 210 213 210 212 217 218 215 211 212 215 214 219 227 229 220 215 211 201 205 218 228 232 230 238 241 247 264 250 248 249 238 234 230 230 233 235
281 277 273 270 266 263 262 254 240 234 235 230 225 223 224 228 229 225 222 224 226 222 218 216 215 216 215 214 213 211 214 215 214 213 208 203 202 203 204 205 205 205 206 205 205 210 214 214 207 205 210 210 209 213 213 211 214 220 218 212 209 208 211 217 224 223 212 212 212 202 202 217 227 229 229 237 240 242 251 252 260 264 250 240 235 236 240 242
280 276 271 267 262 261 257 242 230 232 232 224 219 218 220 225 224 218 216 222 225 218 212 210 210 212 210 208 207 207 211 216 212 208 205 203 201 202 202 205 207 206 205 205 208 211 212 210 206 205 209 209 210 214 216 212 211 218 218 211 206 205 208 214 216 213 208 210 212 204 201 212 223 225 228 234 234 237 242 243 253 262 260 251 245 242 242 244
277 273 269 263 258 255 246 233 228 229 222 216 217 217 220 223 217 211 212 219 222 212 205 207 207 206 206 204 199 199 208 209 204 203 203 201 201 201 201 204 205 205 206 205 209 212 209 206 206 206 207 209 210 213 214 209 207 216 216 206 203 204 208 212 209 208 211 213 215 212 205 205 212 221 229 231 228 236 246 244 246 251 258 258 253 249 245 244
271 267 263 260 255 248 240 233 230 223 213 212 218 218 220 217 208 205 206 209 210 203 201 204 203 202 202 200 196 198 204 201 197 202 201 198 200 199 201 204 202 203 205 203 206 211 207 206 206 205 206 209 210 210 208 204 208 216 212 203 202 204 207 207 204 206 212 212 215 219 211 204 213 223 228 229 226 231 244 243 244 251 259 259 257 256 252 248
265 260 257 257 254 248 239 231 224 216 212 214 219 218 215 208 202 202 203 203 202 200 200 199 199 200 198 196 197 199 202 199 197 198 196 196 200 200 201 203 198 199 203 202 204 206 206 206 204 202 205 208 208 207 202 201 209 211 205 202 203 203 205 204 202 204 208 209 213 220 215 207 216 224 222 223 224 228 234 234 243 256 263 267 271 270 265 259
261 257 255 253 251 244 235 228 221 214 212 214 217 215 207 199 197 198 201 201 201 201 199 197 199 199 194 192 197 200 201 199 194 190 191 195 198 198 198 197 194 196 201 201 201 203 205 203 200 201 204 204 203 203 201 200 203 202 199 200 201 203 204 204 206 204 206 213 217 219 214 207 216 225 220 219 222 226 228 232 245 258 264 271 278 281 277 271
261 256 252 249 244 237 229 222 214 207 207 210 212 207 197 194 194 194 197 200 201 202 199 197 198 195 191 192 195 196 197 198 193 189 191 194 193 194 194 193 194 194 198 200 201 206 207 201 201 203 202 197 196 200 202 201 198 197 198 197 195 201 202 203 210 206 205 214 219 219 213 207 214 221 221 221 220 222 226 232 244 252 261 271 280 284 281 275
260 253 249 247 241 231 221 212 205 202 204 207 205 196 189 192 196 195 195 196 197 200 197 195 196 193 192 193 192 192 193 194 194 191 192 192 192 193 193 194 193 192 197 200 201 206 208 206 206 205 202 197 196 199 201 200 198 196 196 193 192 198 200 204 212 209 209 214 216 219 214 212 219 221 220 221 219 222 227 231 239 246 257 269 276 278 275 273
256 250 247 244 237 226 217 212 209 206 206 203 197 190 186 188 195 196 196 196 192 195 196 192 192 190 190 190 188 187 188 191 192 191 191 190 190 193 193 194 192 190 196 199 198 202 206 209 208 202 204 202 196 198 200 200 199 197 197 196 195 197 198 205 213 213 215 215 215 220 217 217 223 221 219 220 221 227 228 230 238 245 256 266 270 272 270 271
253 247 244 237 229 221 213 209 207 203 199 195 188 184 184 187 191 190 193 199 194 193 193 188 186 184 186 187 185 183 184 188 188 186 188 188 189 192 193 195 194 191 192 195 198 200 199 205 205 200 204 203 198 199 198 196 199 200 201 199 200 201 201 207 213 213 214 214 217 222 219 218 221 220 220 219 223 227 226 231 241 249 258 262 267 271 269 271
251 245 238 229 221 214 205 199 198 193 189 187 182 182 186 188 187 182 185 191 188 189 192 189 184 181 183 184 183 183 183 184 184 183 186 189 190 192 193 195 196 193 191 193 198 200 198 204 207 203 201 197 197 201 196 194 201 204 201 200 205 206 203 206 212 212 210 213 220 223 222 222 221 220 222 220 222 223 224 232 241 248 254 257 264 269 270 271
248 238 227 219 211 202 194 191 189 186 186 184 182 186 188 185 181 178 181 183 183 190 196 193 184 179 180 182 182 184 183 181 182 183 187 189 191 193 194 196 197 193 192 194 197 198 197 204 208 203 201 198 197 200 200 200 203 202 201 202 207 207 203 205 213 216 211 212 222 225 221 221 221 222 222 220 221 222 224 232 236 243 251 260 267 271 275 277
238 228 217 211 203 193 188 186 184 184 186 184 183 186 185 182 180 179 182 184 187 193 190 184 181 177 179 181 183 184 183 181 182 183 187 190 193 194 195 198 199 195 194 194 197 198 195 201 206 199 199 203 199 196 201 205 201 199 201 203 203 205 207 209 214 221 218 216 224 226 221 219 221 224 223 220 222 224 225 229 234 247 259 266 272 276 281 284
228 219 210 204 196 188 184 183 182 183 183 182 184 186 183 181 179 180 187 189 186 189 183 178 178 178 179 181 183 184 184 184 184 184 186 190 194 194 193 198 199 197 196 193 195 199 194 198 207 201 197 204 203 198 202 207 204 202 202 200 201 206 212 214 216 219 219 218 225 229 226 222 223 225 222 220 223 225 226 232 241 254 265 270 276 281 286 290
214 207 201 195 189 184 181 179 180 180 179 181 185 185 183 181 181 187 194 188 178 182 180 176 176 177 179 180 180 182 184 185 185 184 186 188 192 194 195 198 198 197 197 194 194 199 195 195 204 204 199 202 205 205 206 206 204 203 202 203 208 210 211 214 217 219 217 219 225 228 230 230 228 226 223 221 224 224 226 235 246 256 264 270 277 282 286 290
204 201 195 188 183 180 178 177 178 179 179 182 183 182 182 181 183 192 196 180 175 176 174 174 174 175 178 178 178 180 181 182 183 184 186 186 188 194 197 197 196 195 195 196 197 198 196 195 199 204 204 202 205 207 207 205 202 202 203 206 210 212 212 214 219 221 218 219 223 225 231 235 231 228 227 225 224 226 229 235 246 256 263 269 275 281 284 286
199 196 189 184 181 177 175 175 178 180 181 182 181 181 183 181 181 191 197 179 173 173 172 171 173 175 177 176 176 177 177 179 182 184 186 186 187 192 196 195 195 194 194 197 200 200 198 197 198 201 201 203 209 212 209 207 205 205 207 209 210 211 210 212 221 226 223 222 223 222 230 236 231 228 229 227 226 230 231 232 242 254 260 267 274 278 281 284
195 191 186 182 179 175 173 176 179 180 180 181 182 182 184 181 180 185 187 171 167 169 167 163 166 171 174 176 177 176 176 179 183 184 184 186 188 192 197 198 194 192 193 198 202 202 199 197 197 201 203 206 213 214 210 206 203 205 210 213 212 213 212 213 221 226 224 226 226 224 231 236 231 226 227 227 228 229 230 230 236 248 256 263 269 274 278 282
190 188 185 179 177 175 175 177 180 181 181 183 184 185 184 182 179 181 178 167 164 164 163 161 162 164 169 174 175 176 177 176 180 185 184 184 187 191 196 195 190 190 193 198 201 202 201 199 200 204 208 212 215 214 211 208 205 207 214 216 213 215 217 218 222 223 221 223 225 227 233 233 228 225 223 224 227 229 232 232 232 242 252 258 265 271 276 280
187 187 182 176 177 179 179 177 179 182 184 183 183 185 185 183 181 182 178 169 166 165 163 163 162 161 167 172 172 175 179 177 178 184 184 184 185 187 188 185 186 191 196 198 198 199 201 202 200 200 204 209 212 213 213 213 211 212 216 219 218 216 215 219 225 224 222 223 221 222 229 229 226 224 222 222 227 233 237 235 231 239 249 254 261 268 273 278
186 184 179 177 181 185 182 179 180 181 182 182 182 185 185 183 182 184 181 175 171 169 166 166 166 162 167 172 171 174 180 180 181 183 183 183 185 186 184 179 181 188 193 193 192 192 197 202 201 199 201 203 207 211 212 211 212 215 218 221 223 219 216 219 223 222 223 225 222 221 226 224 221 222 221 222 227 232 236 236 235 240 247 252 258 265 272 277
183 181 178 178 183 187 186 184 182 180 180 180 181 182 181 179 181 181 178 175 173 171 168 170 170 166 165 169 168 169 175 178 180 181 182 182 184 186 185 178 176 179 178 179 185 189 193 199 202 201 203 205 207 213 215 211 210 215 220 224 226 226 224 220 221 225 223 222 225 227 223 217 217 220 220 222 226 230 235 238 239 241 246 252 258 265 271 276
180 181 181 180 182 186 188 188 183 180 181 179 179 181 179 180 182 179 176 175 173 172 172 172 172 170 171 170 166 169 176 174 174 178 182 184 184 186 185 178 179 183 179 180 189 192 191 198 203 202 203 207 208 210 212 209 209 214 219 222 226 228 227 220 222 228 223 219 229 231 223 217 220 222 221 223 225 229 236 241 240 242 248 254 260 266 270 276
179 180 183 182 182 183 185 186 183 181 183 180 179 180 180 181 183 181 182 181 176 174 175 175 176 175 175 173 169 172 176 173 174 181 183 184 184 185 186 183 186 191 187 187 193 193 192 199 205 202 202 207 211 211 206 201 205 211 215 220 223 225 224 220 224 230 225 224 230 226 219 221 225 223 223 226 226 228 235 240 240 243 249 254 259 263 269 278
178 178 181 183 183 182 181 181 179 180 182 180 179 181 181 182 184 184 186 184 181 181 177 176 183 184 178 175 171 173 178 176 176 182 182 181 181 182 184 188 191 192 188 191 197 196 195 200 204 203 201 205 212 214 208 202 205 211 217 223 225 223 221 221 225 229 228 230 229 218 215 226 231 227 226 227 228 228 234 240 244 247 253 257 259 264 273 281
177 177 178 180 182 180 178 176 174 175 179 179 179 183 183 182 184 185 187 185 185 189 182 176 183 184 175 173 171 176 184 181 177 182 183 182 183 185 187 190 195 196 194 197 203 205 200 200 204 203 201 206 211 210 208 207 206 210 218 224 226 225 223 225 228 230 230 231 228 219 220 230 233 229 227 227 228 231 236 241 245 250 255 260 263 269 275 279
179 179 179 180 178 176 175 174 172 173 177 178 179 183 184 184 184 181 182 185 185 186 184 181 184 185 180 176 174 180 188 184 179 183 186 183 185 190 192 193 194 196 199 200 205 210 206 202 205 204 203 211 216 212 213 212 208 213 221 225 226 224 222 224 229 233 230 223 220 224 230 233 231 228 227 229 230 233 237 242 245 249 255 261 266 269 271 273
178 179 180 178 175 174 173 173 172 174 177 178 180 183 185 186 186 181 178 184 183 180 182 184 186 188 188 184 183 190 194 189 183 183 183 179 178 185 190 190 190 195 200 203 207 213 210 205 207 207 206 212 218 219 220 218 217 223 228 229 227 223 220 224 230 236 234 227 226 233 235 231 228 228 229 231 231 232 237 243 246 249 253 260 265 266 266 269